| time (UTC) | temp F | wind direction | speed MPH | gust MPH | rain 1hr in | rain 24hr in | rain mn in | humidity % | barometer mb |
| 20260506111853 | 73 | 170 | 11.0 | 0.0 | 0.00 | 0.00 | 0.00 | 41 | 1015.0 |
| 20260506110353 | 73 | 170 | 11.0 | 0.0 | 0.00 | 0.00 | 0.00 | 41 | 1015.0 |
| 20260506104853 | 72 | 190 | 11.0 | 0.0 | 0.00 | 0.00 | 0.00 | 38 | 1016.0 |
| 20260506103354 | 72 | 190 | 11.0 | 0.0 | 0.00 | 0.00 | 0.00 | 38 | 1016.0 |
| 20260506101854 | 72 | 190 | 11.0 | 0.0 | 0.00 | 0.00 | 0.00 | 38 | 1016.0 |
| 20260506100354 | 72 | 190 | 11.0 | 0.0 | 0.00 | 0.00 | 0.00 | 38 | 1016.0 |
| 20260506094854 | 70 | 170 | 9.0 | 0.0 | 0.00 | 0.00 | 0.00 | 43 | 1016.0 |
| 20260506093353 | 70 | 170 | 9.0 | 0.0 | 0.00 | 0.00 | 0.00 | 43 | 1016.0 |
| 20260506091853 | 70 | 170 | 9.0 | 0.0 | 0.00 | 0.00 | 0.00 | 43 | 1016.0 |
| 20260506090353 | 70 | 170 | 9.0 | 0.0 | 0.00 | 0.00 | 0.00 | 43 | 1016.0 |
| 20260506084854 | 68 | 190 | 9.0 | 0.0 | 0.00 | 0.00 | 0.00 | 40 | 1016.0 |
| 20260506083353 | 68 | 190 | 9.0 | 0.0 | 0.00 | 0.00 | 0.00 | 40 | 1016.0 |
| 20260506081850 | 68 | 190 | 9.0 | 0.0 | 0.00 | 0.00 | 0.00 | 40 | 1016.0 |
| 20260506080354 | 68 | 190 | 9.0 | 0.0 | 0.00 | 0.00 | 0.00 | 40 | 1016.0 |
| 20260506073354 | 63 | 210 | 9.0 | 0.0 | 0.00 | 0.00 | 0.00 | 52 | 1016.0 |
| 20260506071853 | 63 | 210 | 9.0 | 0.0 | 0.00 | 0.00 | 0.00 | 52 | 1016.0 |
| 20260506070353 | 63 | 210 | 9.0 | 0.0 | 0.00 | 0.00 | 0.00 | 52 | 1016.0 |
| 20260506061854 | 61 | 210 | 9.0 | 0.0 | 0.00 | 0.00 | 0.00 | 52 | 1015.0 |
| 20260506060355 | 61 | 210 | 9.0 | 0.0 | 0.00 | 0.00 | 0.00 | 52 | 1015.0 |
| 20260506050407 | 57 | 250 | 9.0 | 0.0 | 0.00 | 0.00 | 0.00 | 59 | 1015.0 |
| 20260506044909 | 50 | 260 | 5.0 | 0.0 | 0.00 | 0.00 | 0.00 | 71 | 1015.0 |
| 20260506043357 | 50 | 260 | 5.0 | 0.0 | 0.00 | 0.00 | 0.00 | 71 | 1015.0 |
| 20260506041854 | 50 | 260 | 5.0 | 0.0 | 0.00 | 0.00 | 0.00 | 71 | 1015.0 |
| 20260506040353 | 50 | 260 | 5.0 | 0.0 | 0.00 | 0.00 | 0.00 | 71 | 1015.0 |
| 20260506034854 | 46 | 3.0 | 0.0 | 0.00 | 0.00 | 0.00 | 76 | 1015.0 | |
| 20260506033353 | 46 | 3.0 | 0.0 | 0.00 | 0.00 | 0.00 | 76 | 1015.0 | |
| 20260506031853 | 46 | 3.0 | 0.0 | 0.00 | 0.00 | 0.00 | 76 | 1015.0 | |
| 20260506030353 | 46 | 3.0 | 0.0 | 0.00 | 0.00 | 0.00 | 76 | 1015.0 | |
| 20260506024853 | 46 | 3.0 | 0.0 | 0.00 | 0.00 | 0.00 | 87 | 1016.0 | |
| 20260506023353 | 46 | 3.0 | 0.0 | 0.00 | 0.00 | 0.00 | 87 | 1016.0 | |
| 20260506021851 | 0 | 0.0 | 0.0 | 0.00 | 0.00 | 0.00 | |||
| 20260506020353 | 0 | 0.0 | 0.0 | 0.00 | 0.00 | 0.00 | |||
| 20260506014853 | 48 | 3.0 | 0.0 | 0.00 | 0.00 | 0.00 | 87 | 1016.0 | |
| 20260506013353 | 48 | 3.0 | 0.0 | 0.00 | 0.00 | 0.00 | 87 | 1016.0 | |
| 20260506011854 | 48 | 3.0 | 0.0 | 0.00 | 0.00 | 0.00 | 87 | 1016.0 | |
| 20260506010353 | 48 | 3.0 | 0.0 | 0.00 | 0.00 | 0.00 | 87 | 1016.0 | |
| 20260506004850 | 48 | 3.0 | 0.0 | 0.00 | 0.00 | 0.00 | 87 | 1016.0 | |
| 20260506003516 | 0 | 0.0 | 0.0 | 0.00 | 0.00 | 0.00 | |||
| 20260506001854 | 50 | 3.0 | 0.0 | 0.00 | 0.00 | 0.00 | 88 | 1016.0 | |
| 20260506000354 | 50 | 3.0 | 0.0 | 0.00 | 0.00 | 0.00 | 88 | 1016.0 | |
| 20260505234854 | 0 | 0.0 | 0.0 | 0.00 | 0.00 | 0.00 | |||
| 20260505233353 | 0 | 0.0 | 0.0 | 0.00 | 0.00 | 0.00 | |||
| 20260505231853 | 0 | 0.0 | 0.0 | 0.00 | 0.00 | 0.00 | |||
| 20260505230354 | 0 | 0.0 | 0.0 | 0.00 | 0.00 | 0.00 | |||
| 20260505224854 | 54 | 3.0 | 0.0 | 0.00 | 0.00 | 0.00 | 77 | 1015.0 | |
| 20260505223353 | 54 | 3.0 | 0.0 | 0.00 | 0.00 | 0.00 | 77 | 1015.0 | |
| 20260505221851 | 54 | 3.0 | 0.0 | 0.00 | 0.00 | 0.00 | 77 | 1015.0 | |
| 20260505220354 | 54 | 3.0 | 0.0 | 0.00 | 0.00 | 0.00 | 77 | 1015.0 | |
| 20260505214854 | 54 | 3.0 | 0.0 | 0.00 | 0.00 | 0.00 | 77 | 1015.0 | |
| 20260505213354 | 55 | 3.0 | 0.0 | 0.00 | 0.00 | 0.00 | 72 | 1015.0 | |
| 20260505211853 | 55 | 3.0 | 0.0 | 0.00 | 0.00 | 0.00 | 72 | 1015.0 | |
| 20260505210354 | 55 | 3.0 | 0.0 | 0.00 | 0.00 | 0.00 | 72 | 1015.0 | |
| 20260505204855 | 55 | 3.0 | 0.0 | 0.00 | 0.00 | 0.00 | 72 | 1015.0 | |
| 20260505203353 | 55 | 3.0 | 0.0 | 0.00 | 0.00 | 0.00 | 77 | 1014.0 | |
| 20260505201924 | 55 | 3.0 | 0.0 | 0.00 | 0.00 | 0.00 | 77 | 1014.0 | |
| 20260505200354 | 55 | 3.0 | 0.0 | 0.00 | 0.00 | 0.00 | 77 | 1014.0 | |
| 20260505194853 | 59 | 160 | 11.0 | 0.0 | 0.00 | 0.00 | 0.00 | 63 | 1014.0 |
| 20260505193353 | 59 | 160 | 11.0 | 0.0 | 0.00 | 0.00 | 0.00 | 63 | 1014.0 |
| 20260505191853 | 59 | 160 | 11.0 | 0.0 | 0.00 | 0.00 | 0.00 | 63 | 1014.0 |
| 20260505190353 | 59 | 160 | 11.0 | 0.0 | 0.00 | 0.00 | 0.00 | 63 | 1014.0 |
| 20260505184854 | 61 | 180 | 7.0 | 0.0 | 0.00 | 0.00 | 0.00 | 63 | 1014.0 |
| 20260505183354 | 61 | 180 | 7.0 | 0.0 | 0.00 | 0.00 | 0.00 | 63 | 1014.0 |
| 20260505181851 | 61 | 180 | 7.0 | 0.0 | 0.00 | 0.00 | 0.00 | 63 | 1014.0 |
| 20260505180354 | 61 | 180 | 7.0 | 0.0 | 0.00 | 0.00 | 0.00 | 63 | 1014.0 |
| 20260505174848 | 0 | 180 | 5.0 | 0.0 | 0.00 | 0.00 | 0.00 | 1014.0 | |
| 20260505173353 | 0 | 180 | 5.0 | 0.0 | 0.00 | 0.00 | 0.00 | 1014.0 | |
| 20260505171853 | 0 | 180 | 5.0 | 0.0 | 0.00 | 0.00 | 0.00 | 1014.0 | |
| 20260505170354 | 0 | 180 | 5.0 | 0.0 | 0.00 | 0.00 | 0.00 | 1014.0 | |
| 20260505164853 | 73 | 180 | 5.0 | 0.0 | 0.00 | 0.00 | 0.00 | 38 | 1013.0 |
| 20260505163354 | 73 | 180 | 5.0 | 0.0 | 0.00 | 0.00 | 0.00 | 38 | 1013.0 |
| 20260505161854 | 73 | 180 | 5.0 | 0.0 | 0.00 | 0.00 | 0.00 | 38 | 1013.0 |
| 20260505160354 | 73 | 180 | 5.0 | 0.0 | 0.00 | 0.00 | 0.00 | 38 | 1013.0 |
| 20260505153354 | 73 | 210 | 7.0 | 0.0 | 0.00 | 0.00 | 0.00 | 38 | 1014.0 |
| 20260505151902 | 73 | 210 | 7.0 | 0.0 | 0.00 | 0.00 | 0.00 | 38 | 1014.0 |
| 20260505150354 | 73 | 210 | 7.0 | 0.0 | 0.00 | 0.00 | 0.00 | 38 | 1014.0 |
| 20260505140353 | 73 | 150 | 7.0 | 0.0 | 0.00 | 0.00 | 0.00 | 41 | 1014.0 |
| 20260505124854 | 73 | 190 | 5.0 | 0.0 | 0.00 | 0.00 | 0.00 | 41 | 1015.0 |
| 20260505123353 | 73 | 190 | 5.0 | 0.0 | 0.00 | 0.00 | 0.00 | 41 | 1015.0 |
| 20260505121853 | 73 | 190 | 5.0 | 0.0 | 0.00 | 0.00 | 0.00 | 41 | 1015.0 |
| 20260505120405 | 0 | 0.0 | 0.0 | 0.00 | 0.00 | 0.00 | |||
| 20260505114901 | 73 | 140 | 7.0 | 0.0 | 0.00 | 0.00 | 0.00 | 38 | 1015.0 |
| 20260505113424 | 73 | 140 | 7.0 | 0.0 | 0.00 | 0.00 | 0.00 | 38 | 1015.0 |